�N����,����,�~����,�C��,���x,�C��,����,���ϕ���,�ő�u�ԕ���,�ő厞����,���˗�,�I�_���x,�n�����x,�ő啗���N��,DTYPE
"19/09/17","00:10",0.0,22.9,84.0,1000.3,316.0,1.6,2.9,335.0,0.00,20.1,24.4,"00:02:56",1
"19/09/17","00:20",0.0,22.9,84.3,1000.3,320.3,1.2,2.2,337.2,0.00,20.2,24.1,"00:18:16",1
"19/09/17","00:30",0.0,22.7,84.1,1000.3,305.9,0.6,1.8,338.3,0.00,19.9,24.3,"00:24:24",1
"19/09/17","00:40",0.0,22.4,85.3,1000.3,48.2,0.6,1.7,336.4,0.00,19.9,24.2,"00:39:44",1
"19/09/17","00:50",0.0,22.1,85.7,1000.5,319.5,1.3,2.2,336.2,0.00,19.6,24.2,"00:48:08",1
"19/09/17","01:00",0.0,22.4,86.8,1000.5,324.6,1.1,2.5,330.7,0.00,20.1,24.0,"00:56:40",1
"19/09/17","01:10",0.0,22.7,86.5,1000.5,326.2,1.3,2.8,320.6,0.00,20.4,24.2,"01:05:12",1
"19/09/17","01:20",0.0,22.6,85.9,1000.5,332.4,0.8,1.8,329.3,0.00,20.2,23.9,"01:10:40",1
"19/09/17","01:30",0.0,22.2,86.9,1000.5,316.8,1.2,1.8,307.7,0.00,20.0,24.1,"01:24:48",1
"19/09/17","01:40",0.0,22.1,87.6,1000.5,321.3,1.5,2.6,336.8,0.00,20.0,23.9,"01:37:44",1
"19/09/17","01:50",0.0,22.2,88.1,1001.0,319.6,1.3,2.0,328.7,0.00,20.2,23.9,"01:41:20",1
"19/09/17","02:00",0.0,22.4,88.1,1000.8,315.5,1.2,1.8,318.5,0.00,20.4,24.0,"01:53:36",1
"19/09/17","02:10",0.0,22.5,88.2,1000.8,309.3,1.2,1.7,323.5,0.00,20.5,24.1,"02:00:48",1
"19/09/17","02:20",0.0,22.7,88.1,1001.0,308.8,1.2,2.8,327.7,0.00,20.7,23.8,"02:16:40",1
"19/09/17","02:30",0.0,22.7,87.5,1001.0,316.1,1.2,2.0,321.3,0.00,20.6,23.9,"02:28:08",1
"19/09/17","02:40",0.0,22.4,87.6,1001.0,321.3,1.2,1.9,326.0,0.00,20.3,23.7,"02:30:24",1
"19/09/17","02:50",0.0,22.1,87.8,1001.0,326.8,1.1,1.4,335.0,0.00,20.0,24.0,"02:42:00",1
"19/09/17","03:00",0.0,21.8,88.6,1001.0,312.5,1.1,1.8,322.7,0.00,19.9,23.9,"02:52:00",1
"19/09/17","03:10",0.0,21.6,89.5,1001.0,324.7,0.7,1.2,322.4,0.00,19.8,23.8,"03:04:00",1
"19/09/17","03:20",0.0,21.4,89.6,1000.8,309.5,1.2,2.0,317.0,0.00,19.7,23.7,"03:19:20",1
"19/09/17","03:30",0.0,21.3,90.4,1001.0,311.1,1.0,1.7,320.1,0.00,19.7,23.7,"03:28:40",1
"19/09/17","03:40",0.0,21.2,91.1,1001.0,309.1,1.1,1.8,324.1,0.00,19.7,23.8,"03:31:12",1
"19/09/17","03:50",0.0,21.4,91.0,1001.2,321.4,1.2,2.1,337.0,0.00,19.9,23.7,"03:40:48",1
"19/09/17","04:00",0.0,21.5,90.7,1001.5,339.3,0.6,1.2,341.3,0.00,20.0,23.5,"03:55:36",1
"19/09/17","04:10",0.0,21.3,90.7,1001.5,316.7,1.3,2.0,328.5,0.00,19.8,23.6,"04:05:36",1
"19/09/17","04:20",0.0,21.1,91.3,1001.7,319.6,0.7,1.6,327.3,0.00,19.7,23.8,"04:18:08",1
"19/09/17","04:30",0.0,21.0,91.6,1001.7,313.8,1.1,1.6,330.8,0.00,19.6,23.6,"04:25:28",1
"19/09/17","04:40",0.0,20.9,91.9,1002.2,318.7,0.7,1.4,308.8,0.00,19.6,23.5,"04:39:52",1
"19/09/17","04:50",0.0,20.8,92.1,1002.2,306.7,0.5,1.3,309.2,0.00,19.5,23.4,"04:40:08",1
"19/09/17","05:00",0.0,20.6,92.3,1002.4,9.0,0.5,1.1,309.9,0.00,19.3,23.5,"04:57:36",1
"19/09/17","05:10",0.0,20.5,92.8,1002.4,315.3,1.2,2.2,333.9,0.00,19.3,23.6,"05:06:32",1
"19/09/17","05:20",0.0,20.6,93.3,1002.6,319.0,1.1,1.6,326.9,0.00,19.5,23.4,"05:14:16",1
"19/09/17","05:30",0.0,20.6,93.2,1002.6,323.9,1.0,1.6,328.6,0.00,19.5,23.4,"05:29:52",1
"19/09/17","05:40",0.0,20.6,93.0,1002.9,329.3,1.3,1.9,333.9,0.00,19.5,23.5,"05:30:56",1
"19/09/17","05:50",0.0,20.5,93.3,1002.6,325.6,1.2,2.0,323.1,0.00,19.4,23.4,"05:49:28",1
"19/09/17","06:00",0.0,20.4,93.2,1002.6,316.2,1.1,1.8,334.8,0.00,19.3,23.3,"05:50:16",1
"19/09/17","06:10",0.0,20.5,93.5,1002.4,330.2,0.8,1.3,322.2,0.00,19.5,23.4,"06:03:36",1
"19/09/17","06:20",0.0,20.4,93.4,1002.4,322.5,0.7,1.4,316.0,0.00,19.3,23.2,"06:19:44",1
"19/09/17","06:30",0.0,20.7,93.8,1002.6,0.8,0.6,1.6,343.7,0.00,19.7,23.2,"06:20:24",1
"19/09/17","06:40",0.0,20.8,93.6,1002.6,283.4,0.5,1.8,330.9,0.00,19.8,23.1,"06:39:12",1
"19/09/17","06:50",0.0,21.0,93.5,1002.9,336.6,0.8,1.9,313.5,0.00,20.0,23.2,"06:43:44",1
"19/09/17","07:00",0.0,21.7,93.2,1002.6,333.3,0.1,0.6,309.9,0.00,20.6,23.2,"06:54:48",1
"19/09/17","07:10",0.0,21.7,93.1,1002.9,338.8,1.0,1.6,337.4,0.01,20.6,23.2,"07:05:28",1
"19/09/17","07:20",0.0,22.4,91.8,1002.6,339.3,1.1,1.8,337.1,0.02,21.0,23.3,"07:14:24",1
"19/09/17","07:30",0.0,23.0,90.1,1002.9,330.0,0.8,1.3,334.9,0.04,21.3,23.5,"07:20:08",1
"19/09/17","07:40",0.0,23.9,88.0,1003.1,272.6,0.2,0.9,3.4,0.06,21.8,23.6,"07:38:56",1
"19/09/17","07:50",0.0,24.0,85.7,1003.4,342.9,0.6,1.9,348.7,0.09,21.5,23.6,"07:45:52",1
"19/09/17","08:00",0.0,24.5,84.6,1003.1,260.5,1.0,2.6,188.0,0.11,21.8,23.7,"07:51:44",1
"19/09/17","08:10",0.0,25.2,80.9,1002.6,82.0,0.6,1.8,102.1,0.13,21.7,23.8,"08:00:16",1
"19/09/17","08:20",0.0,25.9,78.4,1003.4,121.4,1.0,1.7,127.3,0.16,21.9,24.1,"08:14:24",1
"19/09/17","08:30",0.0,25.8,76.4,1003.1,156.3,1.1,2.8,201.3,0.15,21.4,24.2,"08:24:08",1
"19/09/17","08:40",0.0,26.5,74.3,1003.1,150.9,0.8,1.6,58.6,0.22,21.6,24.5,"08:30:32",1
"19/09/17","08:50",0.0,27.1,70.5,1002.4,145.4,0.8,3.5,216.4,0.24,21.3,24.4,"08:48:08",1
"19/09/17","09:00",0.0,27.4,66.6,1003.1,1.8,1.5,3.6,347.3,0.27,20.7,24.8,"08:54:40",1
"19/09/17","09:10",0.0,27.2,66.2,1002.9,342.2,2.1,5.1,321.7,0.28,20.4,25.0,"09:01:20",1
"19/09/17","09:20",0.0,27.4,64.0,1003.1,11.0,2.5,5.1,355.6,0.29,20.0,25.0,"09:15:36",1
"19/09/17","09:30",0.0,27.8,64.1,1003.1,17.1,1.8,5.4,348.5,0.33,20.4,25.2,"09:20:02",1
"19/09/17","09:40",0.0,28.0,61.9,1003.4,6.0,1.6,3.3,347.6,0.35,20.1,25.6,"09:37:52",1
"19/09/17","09:50",0.0,28.1,60.9,1003.6,18.9,2.3,5.1,12.7,0.38,19.9,25.8,"09:48:24",1
"19/09/17","10:00",0.0,28.4,61.0,1003.6,12.9,2.3,5.0,349.2,0.41,20.2,25.8,"09:55:52",1
"19/09/17","10:10",0.0,28.4,60.2,1003.6,8.2,2.1,5.4,28.1,0.42,20.0,26.0,"10:06:08",1
"19/09/17","10:20",0.0,28.7,59.0,1003.6,14.1,2.2,4.7,11.8,0.44,19.9,26.2,"10:12:32",1
"19/09/17","10:30",0.0,28.7,59.2,1003.8,11.0,2.0,4.5,19.5,0.45,20.0,26.3,"10:20:16",1
"19/09/17","10:40",0.0,28.9,60.1,1003.8,11.7,2.1,5.0,339.6,0.47,20.4,26.5,"10:32:08",1
"19/09/17","10:50",0.0,28.8,61.1,1004.1,347.3,2.2,4.8,331.3,0.48,20.6,26.9,"10:40:48",1
"19/09/17","11:00",0.0,29.2,59.4,1004.1,11.0,2.0,5.0,340.8,0.49,20.5,26.9,"10:54:48",1
"19/09/17","11:10",0.0,29.3,58.1,1004.1,23.3,1.6,4.7,60.8,0.50,20.3,27.3,"11:07:20",1
"19/09/17","11:20",0.0,29.6,56.2,1004.1,16.6,1.7,4.5,356.8,0.51,20.0,27.5,"11:11:04",1
"19/09/17","11:30",0.0,30.1,56.3,1003.8,50.1,1.2,3.2,42.7,0.52,20.5,27.8,"11:20:24",1
"19/09/17","11:40",0.0,29.5,59.2,1004.1,350.0,2.3,8.0,337.2,0.52,20.7,27.8,"11:37:20",1
"19/09/17","11:50",0.0,29.1,58.5,1003.6,345.9,3.1,6.7,335.8,0.53,20.2,28.2,"11:46:56",1
"19/09/17","12:00",0.0,29.8,57.5,1003.6,355.0,2.7,6.5,345.1,0.54,20.5,28.2,"11:52:24",1
"19/09/17","12:10",0.0,29.4,57.5,1003.6,0.1,2.6,5.9,346.6,0.49,20.2,28.5,"12:03:52",1
"19/09/17","12:20",0.0,29.7,57.9,1003.6,350.3,2.6,5.0,341.0,0.55,20.6,28.5,"12:12:00",1
"19/09/17","12:30",0.0,29.6,57.7,1003.6,355.1,3.0,8.1,338.3,0.53,20.4,28.7,"12:25:44",1
"19/09/17","12:40",0.0,29.9,56.7,1003.1,10.3,2.8,7.0,342.7,0.51,20.4,28.9,"12:31:52",1
"19/09/17","12:50",0.0,29.8,55.5,1002.9,5.6,2.7,7.0,343.5,0.57,20.0,28.9,"12:46:40",1
"19/09/17","13:00",0.0,29.4,57.9,1002.9,352.3,3.0,6.4,355.6,0.56,20.3,29.2,"12:58:56",1
"19/09/17","13:10",0.0,29.8,58.2,1002.9,356.3,2.6,5.9,320.7,0.53,20.7,29.4,"13:08:24",1
"19/09/17","13:20",0.0,29.5,59.0,1002.9,354.2,2.6,8.2,352.5,0.53,20.7,29.1,"13:19:20",1
"19/09/17","13:30",0.0,29.5,59.7,1002.9,345.4,2.7,6.7,338.2,0.52,20.9,29.2,"13:21:44",1
"19/09/17","13:40",0.0,29.4,58.7,1003.1,2.7,2.8,7.8,354.5,0.51,20.5,29.4,"13:39:20",1
"19/09/17","13:50",0.0,28.8,60.9,1002.6,352.1,3.1,7.8,340.8,0.50,20.5,29.6,"13:47:12",1
"19/09/17","14:00",0.0,29.4,62.0,1002.4,351.8,3.2,7.0,342.8,0.49,21.4,29.3,"13:53:28",1
"19/09/17","14:10",0.0,29.4,60.8,1003.1,354.8,2.6,5.9,352.8,0.48,21.1,29.7,"14:05:36",1
"19/09/17","14:20",0.0,28.9,60.3,1002.9,15.5,2.7,4.9,77.3,0.47,20.5,29.5,"14:18:40",1
"19/09/17","14:30",0.0,29.1,61.2,1002.9,347.8,2.8,8.3,341.1,0.46,20.9,29.5,"14:21:28",1
"19/09/17","14:40",0.0,29.2,61.7,1002.9,349.4,3.1,6.8,340.5,0.45,21.1,29.7,"14:32:16",1
"19/09/17","14:50",0.0,28.3,62.9,1002.9,357.9,3.0,6.3,339.8,0.33,20.6,29.7,"14:47:04",1
"19/09/17","15:00",0.0,28.4,64.0,1002.4,345.4,3.7,7.8,319.3,0.40,21.0,29.5,"14:57:52",1
"19/09/17","15:10",0.0,28.3,64.4,1002.2,345.7,3.1,7.7,353.9,0.39,21.0,29.5,"15:00:16",1
"19/09/17","15:20",0.0,28.0,65.1,1002.4,342.8,4.2,8.6,331.8,0.37,20.9,29.3,"15:13:36",1
"19/09/17","15:30",0.0,27.7,65.1,1001.9,338.1,4.2,8.5,329.9,0.35,20.6,29.4,"15:29:20",1
"19/09/17","15:40",0.0,27.4,65.8,1001.9,343.4,4.5,7.3,316.7,0.32,20.5,29.2,"15:32:00",1
"19/09/17","15:50",0.0,27.1,66.9,1001.7,340.5,4.1,9.4,345.8,0.29,20.5,29.0,"15:49:28",1
"19/09/17","16:00",0.0,26.9,67.8,1001.5,336.4,4.6,9.3,327.1,0.23,20.5,29.0,"15:50:02",1
"19/09/17","16:10",0.0,27.1,67.9,1001.5,343.0,4.4,8.7,341.9,0.27,20.7,28.8,"16:02:48",1
"19/09/17","16:20",0.0,26.9,68.4,1002.4,337.9,4.5,10.0,323.2,0.23,20.6,28.8,"16:12:56",1
"19/09/17","16:30",0.0,26.9,68.2,1002.2,336.2,3.9,8.3,342.8,0.20,20.6,28.6,"16:27:04",1
"19/09/17","16:40",0.0,26.7,67.9,1002.4,339.0,4.1,8.6,356.6,0.17,20.3,28.5,"16:36:16",1
"19/09/17","16:50",0.0,26.7,68.3,1002.6,341.2,3.7,7.9,347.5,0.15,20.4,28.3,"16:47:44",1
"19/09/17","17:00",0.0,26.6,68.6,1002.2,341.3,4.4,8.9,344.6,0.12,20.4,28.0,"16:57:20",1
"19/09/17","17:10",0.0,26.3,69.0,1002.9,340.7,4.0,9.6,340.0,0.10,20.2,28.0,"17:04:08",1
"19/09/17","17:20",0.0,26.0,70.0,1002.9,341.3,4.4,8.1,332.0,0.08,20.1,28.0,"17:14:40",1
"19/09/17","17:30",0.0,25.6,71.0,1002.9,337.8,4.9,8.7,322.4,0.05,20.0,27.7,"17:21:44",1
"19/09/17","17:40",0.0,25.4,71.9,1003.4,344.8,4.0,8.2,336.7,0.04,20.0,27.5,"17:35:12",1
"19/09/17","17:50",0.0,25.2,72.5,1003.4,334.0,4.1,7.4,340.2,0.02,19.9,27.3,"17:44:00",1
"19/09/17","18:00",0.0,25.0,73.5,1003.8,341.0,3.9,7.9,342.3,0.01,20.0,27.3,"17:57:36",1
"19/09/17","18:10",0.0,24.7,74.4,1004.1,332.6,3.6,6.8,344.5,0.00,19.9,27.0,"18:06:48",1
"19/09/17","18:20",0.0,24.7,74.8,1003.8,335.8,3.7,5.6,328.3,0.00,20.0,27.1,"18:10:32",1
"19/09/17","18:30",0.0,24.6,75.2,1003.8,340.6,3.1,6.8,337.1,0.00,20.0,26.8,"18:25:44",1
"19/09/17","18:40",0.0,24.4,75.8,1004.1,332.3,2.8,6.0,320.1,0.00,19.9,26.7,"18:31:52",1
"19/09/17","18:50",0.0,24.3,76.0,1004.1,327.0,3.1,5.8,324.0,0.00,19.8,26.4,"18:49:12",1
"19/09/17","19:00",0.0,24.3,75.9,1004.3,327.7,3.2,5.8,339.0,0.00,19.8,26.4,"18:56:48",1
"19/09/17","19:10",0.0,24.3,75.7,1004.3,336.5,3.1,7.4,315.3,0.00,19.8,26.2,"19:05:52",1
"19/09/17","19:20",0.0,24.1,76.3,1004.1,335.5,1.8,3.7,329.1,0.00,19.7,26.2,"19:11:28",1
"19/09/17","19:30",0.0,24.0,76.5,1004.1,315.8,1.6,6.2,344.3,0.00,19.7,26.1,"19:20:24",1
"19/09/17","19:40",0.0,24.0,76.7,1004.1,330.2,1.7,4.0,353.0,0.00,19.7,26.1,"19:38:32",1
"19/09/17","19:50",0.0,23.8,77.1,1004.5,334.1,1.7,3.4,331.0,0.00,19.6,26.0,"19:42:48",1
"19/09/17","20:00",0.0,23.7,77.7,1004.8,309.2,1.3,3.2,316.2,0.00,19.6,25.8,"19:52:24",1
"19/09/17","20:10",0.0,23.6,78.3,1004.8,307.5,1.1,2.0,335.0,0.00,19.6,25.9,"20:09:12",1
"19/09/17","20:20",0.0,23.5,79.0,1004.8,302.5,1.3,3.5,340.2,0.00,19.7,25.9,"20:18:48",1
"19/09/17","20:30",0.0,23.5,79.2,1004.8,318.7,1.8,4.0,345.0,0.00,19.7,25.6,"20:29:28",1
"19/09/17","20:40",0.0,23.6,78.9,1004.8,332.2,2.6,4.8,332.4,0.00,19.8,25.7,"20:34:32",1
"19/09/17","20:50",0.0,23.6,78.8,1005.0,333.2,2.2,5.4,322.1,0.00,19.7,25.5,"20:49:44",1
"19/09/17","21:00",0.0,23.8,78.6,1005.2,332.7,3.1,6.2,332.2,0.00,19.9,25.3,"20:55:20",1
"19/09/17","21:10",0.0,24.0,77.9,1005.0,335.9,3.0,5.4,327.3,0.00,19.9,25.4,"21:01:52",1
"19/09/17","21:20",0.0,24.0,77.4,1004.8,332.8,3.5,6.8,331.6,0.00,19.8,25.3,"21:15:28",1
"19/09/17","21:30",0.0,24.0,77.0,1004.8,330.0,3.2,5.8,351.7,0.00,19.8,25.2,"21:23:20",1
"19/09/17","21:40",0.0,24.0,76.6,1005.0,332.0,3.0,5.9,345.4,0.00,19.7,25.3,"21:32:24",1
"19/09/17","21:50",0.0,24.0,76.1,1005.2,330.5,2.7,5.0,328.6,0.00,19.6,25.2,"21:48:08",1
"19/09/17","22:00",0.0,24.0,76.0,1005.2,305.6,1.6,4.7,342.1,0.00,19.5,25.2,"21:51:52",1
"19/09/17","22:10",0.0,23.8,76.7,1005.2,290.1,1.1,2.2,305.4,0.00,19.5,25.1,"22:00:08",1
"19/09/17","22:20",0.0,23.6,77.7,1005.2,289.4,1.3,3.3,346.3,0.00,19.5,25.0,"22:16:32",1
"19/09/17","22:30",0.0,23.5,78.7,1005.2,298.7,1.5,3.1,340.8,0.00,19.6,24.9,"22:24:48",1
"19/09/17","22:40",0.0,23.4,79.2,1005.5,309.2,1.3,2.9,337.2,0.00,19.6,25.0,"22:33:20",1
"19/09/17","22:50",0.0,23.4,79.4,1005.2,318.6,1.6,3.1,335.2,0.00,19.7,25.1,"22:40:24",1
"19/09/17","23:00",0.0,23.4,79.7,1005.0,318.4,1.2,2.9,349.4,0.00,19.7,25.1,"22:58:08",1
"19/09/17","23:10",0.0,23.3,80.1,1005.2,299.4,0.8,2.0,335.9,0.00,19.7,24.8,"23:00:02",1
"19/09/17","23:20",0.0,23.2,80.5,1005.5,327.6,0.8,2.0,342.1,0.00,19.7,25.0,"23:10:48",1
"19/09/17","23:30",0.0,23.2,80.7,1005.5,302.5,1.0,1.4,347.5,0.00,19.7,24.9,"23:20:08",1
"19/09/17","23:40",0.0,23.1,80.8,1005.0,293.0,1.1,1.7,313.2,0.00,19.7,24.8,"23:31:04",1
"19/09/17","23:50",0.0,23.3,80.5,1005.5,315.6,1.8,3.6,337.2,0.00,19.8,24.7,"23:47:28",1
"19/09/17","24:00",0.0,23.4,80.2,1005.2,313.8,1.3,3.1,328.1,0.00,19.8,24.7,"23:54:00",1
